Urb Oriente, Puerto Rico
Current Conditions -  °F | °C
As of 3:53 AM on Friday 28 Nov 2014 (Local Time) from TJNR Reporting Station
Clear Clear  
Wind Chill: 71°   Ceiling: Unl
Heat Index: 71°   Visibility: 10mi
Dew Point: 69°   Wind: 0mph
Humidity: 93%   Direction: NA
Pressure: 29.94"   Gusts: NA
Location:  18.1853°N, 65.8667°W
Report Text: TJNR 280753Z AUTO 00000KT 10SM CLR 22/21 A2994 RMK AO2 SLP137 T02170206 $
Loading
Personal Weather Stations






























Interactive Weather Map New forecast layout! Learn more

10-Day Weather Forecast

Advertisements
Track Severe Weather on mobile